Weather History for KDIK - December, 2013

Change the Weather History Date:

Tuesday, December 3, 2013

  Actual Average Record
Temperature  
Mean Temperature 12 °F 21 °F  
Max Temperature 18 °F 31 °F 59 °F (1941)
Min Temperature 6 °F 11 °F -23 °F (1905)
Degree Days  
Heating Degree Days 53 44  
Month to date heating degree days 117 130  
Since 1 July heating degree days 2058 2207  
Cooling Degree Days 0 0  
Month to date cooling degree days 0 0  
Year to date cooling degree days 386 419  
Moisture  
Dew Point 6 °F    
Average Humidity 84    
Maximum Humidity 92    
Minimum Humidity 76    
Precipitation  
Precipitation 0.08 in 0.00 in 0.12 in (2010)
Month to date precipitation 0.17 0.02  
Year to date precipitation 21.17 15.55  
Sea Level Pressure  
Sea Level Pressure 29.93 in    
Wind  
Wind Speed 15 mph (NNE)    
Max Wind Speed 24 mph    
Max Gust Speed 29 mph    
Visibility 2 miles    
Events Snow    
T = Trace of Precipitation, MM = Missing Value Source: NWS Daily Summary

Daily Weather History Graph

Daily Weather History Graph

Search for Another Location

Airport or City:

Trip Planner

Search our weather history database for the weather conditions in past years. The results will help you decide how hot, cold, wet, or windy it might be!

Date:

Astronomy

Dec. 03, 2013 Rise Set
Actual Time 7:18 AM MST 4:03 PM MST
Civil Twilight 6:43 AM MST 4:38 PM MST
Nautical Twilight 6:05 AM MST 5:16 PM MST
Astronomical Twilight 5:28 AM MST 5:53 PM MST
Moon 7:48 AM MST (12/3) 5:11 PM MST (12/3)
Length of Visible Light 9h 55m
Length of Day
8h 45m
New Moon, 1% of the Moon is Illuminated
Dec 3
New Moon
Dec 9
First Quarter
Dec 17
Full
Dec 25
Last Quarter
Jan 1
New

Hourly Weather History & Observations

Time (MST) Temp. Windchill Dew Point Humidity Pressure Visibility Wind Dir Wind Speed Gust Speed Precip Events Conditions
12:36 AM 18.0 °F 2.6 °F 15.1 °F 88% 29.73 in 7.0 mi NE 17.3 mph - N/A   Overcast
12:56 AM 18.0 °F 2.6 °F 15.1 °F 88% 29.82 in 5.0 mi NE 17.3 mph 24.2 mph N/A   Overcast
1:56 AM 18.0 °F 0.9 °F 15.1 °F 88% 29.85 in 6.0 mi NE 21.9 mph - N/A   Overcast
2:56 AM 18.0 °F 0.9 °F 15.1 °F 88% 29.86 in 4.0 mi NE 21.9 mph 27.6 mph N/A   Overcast
3:46 AM 17.1 °F 0.6 °F 14.0 °F 88% 29.76 in 1.8 mi NE 19.6 mph - 0.00 in Snow Light Snow
3:56 AM 17.1 °F -0.3 °F 14.0 °F 88% 29.88 in 1.2 mi NE 21.9 mph 28.8 mph 0.00 in Snow Light Snow
4:11 AM 17.1 °F 0.6 °F 14.0 °F 88% 29.76 in 3.0 mi NE 19.6 mph 28.8 mph 0.00 in Snow Light Snow
4:25 AM 17.1 °F 0.1 °F 14.0 °F 88% 29.77 in 6.0 mi NE 20.7 mph 27.6 mph 0.00 in Snow Light Snow
4:56 AM 16.0 °F -0.4 °F 12.9 °F 88% 29.90 in 4.0 mi NNE 18.4 mph - 0.00 in Snow Light Snow
5:07 AM 15.1 °F -2.5 °F 12.0 °F 88% 29.77 in 4.0 mi NNE 20.7 mph 25.3 mph 0.00 in Snow Light Snow
5:56 AM 14.0 °F -3.0 °F 10.0 °F 84% 29.92 in 4.0 mi NE 18.4 mph - 0.00 in Snow Light Snow
6:12 AM 12.9 °F -4.4 °F 10.0 °F 88% 29.80 in 2.5 mi NE 18.4 mph - 0.00 in Snow Light Snow
6:26 AM 12.9 °F -4.4 °F 9.0 °F 84% 29.80 in 1.5 mi NE 18.4 mph 23.0 mph 0.00 in Snow Light Snow
6:56 AM 12.0 °F -5.1 °F 8.1 °F 84% 29.94 in 1.8 mi NNE 17.3 mph 24.2 mph 0.01 in Snow Light Snow
7:37 AM 10.9 °F -5.9 °F 8.1 °F 88% 29.83 in 0.8 mi NE 16.1 mph - 0.01 in Snow Light Snow
7:56 AM 10.9 °F -6.5 °F 7.0 °F 84% 29.97 in 0.8 mi NNE 17.3 mph - 0.01 in Snow Light Snow
8:13 AM 10.0 °F -7.1 °F 6.1 °F 84% 29.85 in 1.0 mi NNE 16.1 mph - 0.00 in Snow Light Snow
8:53 AM 10.4 °F -6.6 °F 6.8 °F 85% 29.87 in 1.0 mi NNE 16.1 mph - 0.00 in Snow Light Snow
8:56 AM 10.0 °F -7.1 °F 6.1 °F 84% 30.01 in 1.0 mi NNE 16.1 mph - 0.00 in Snow Light Snow
9:35 AM 10.0 °F -5.9 °F 6.1 °F 84% 29.88 in 1.0 mi NNE 13.8 mph - 0.01 in Snow Light Snow
9:49 AM 10.0 °F -7.1 °F 5.0 °F 80% 29.89 in 1.0 mi NNE 16.1 mph - 0.01 in Snow Light Snow
9:56 AM 10.0 °F -5.2 °F 6.1 °F 84% 30.04 in 1.0 mi NNE 12.7 mph - 0.01 in Snow Light Snow
10:56 AM 10.0 °F -5.2 °F 5.0 °F 80% 30.04 in 1.2 mi NNE 12.7 mph - 0.00 in Snow Light Snow
11:19 AM 10.0 °F -7.1 °F 5.0 °F 80% 29.89 in 0.8 mi North 16.1 mph 23.0 mph 0.00 in Snow Light Snow
11:56 AM 10.0 °F -5.2 °F 5.0 °F 80% 30.03 in 0.5 mi North 12.7 mph - 0.00 in Snow Snow
12:16 PM 10.0 °F -5.9 °F 5.0 °F 80% 29.88 in 0.8 mi North 13.8 mph - 0.01 in Snow Light Snow
12:35 PM 10.0 °F -6.5 °F 5.0 °F 80% 29.86 in 0.5 mi North 15.0 mph - 0.01 in Snow Snow
12:56 PM 10.0 °F -7.1 °F 5.0 °F 80% 30.01 in 0.5 mi North 16.1 mph - 0.01 in Snow Snow
1:56 PM 9.0 °F -5.9 °F 3.9 °F 80% 30.01 in 0.8 mi North 11.5 mph - 0.00 in Snow Light Snow
2:56 PM 9.0 °F -7.3 °F 3.9 °F 80% 30.02 in 0.5 mi NNE 13.8 mph - 0.01 in Snow Snow
3:36 PM 9.0 °F -5.9 °F 3.9 °F 80% 29.89 in 1.0 mi North 11.5 mph - 0.00 in Snow Light Snow
3:48 PM 9.0 °F -6.6 °F 3.9 °F 80% 29.89 in 2.0 mi North 12.7 mph - 0.00 in Snow Light Snow
3:56 PM 9.0 °F -7.3 °F 3.0 °F 77% 30.04 in 1.2 mi North 13.8 mph - 0.00 in Snow Light Snow
4:06 PM 9.0 °F -5.1 °F 3.9 °F 80% 29.90 in 1.0 mi North 10.4 mph - 0.00 in Snow Light Snow
4:56 PM 8.1 °F -4.3 °F 3.0 °F 80% 30.09 in 1.2 mi NNW 8.1 mph - 0.01 in Snow Light Snow
5:12 PM 8.1 °F -6.2 °F 3.0 °F 80% 29.93 in 0.8 mi North 10.4 mph - 0.00 in Snow Light Snow
5:36 PM 8.1 °F -8.4 °F 3.0 °F 80% 29.92 in 1.0 mi North 13.8 mph - 0.01 in Snow Light Snow
5:46 PM 8.1 °F -6.2 °F 3.9 °F 83% 29.92 in 1.2 mi North 10.4 mph - 0.01 in Snow Light Snow
5:56 PM 8.1 °F -7.7 °F 3.0 °F 80% 30.06 in 1.0 mi North 12.7 mph - 0.01 in Snow Light Snow
6:56 PM 8.1 °F -6.2 °F 3.9 °F 83% 30.09 in 1.5 mi North 10.4 mph - 0.01 in Snow Light Snow
7:13 PM 9.0 °F -5.9 °F 3.9 °F 80% 29.92 in 2.0 mi North 11.5 mph - 0.00 in Snow Light Snow
7:21 PM 8.1 °F -9.0 °F 3.0 °F 80% 29.93 in 1.8 mi North 15.0 mph - 0.00 in Snow Light Snow
7:28 PM 8.1 °F -9.0 °F 3.0 °F 80% 29.93 in 2.5 mi North 15.0 mph - 0.00 in Snow Light Snow
7:56 PM 8.1 °F -7.0 °F 3.0 °F 80% 30.10 in 2.0 mi North 11.5 mph - 0.00 in Snow Light Snow
8:08 PM 8.1 °F -8.4 °F 1.9 °F 76% 29.94 in 1.8 mi North 13.8 mph - 0.00 in Snow Light Snow
8:56 PM 8.1 °F -3.2 °F 3.0 °F 80% 30.11 in 1.2 mi North 6.9 mph - 0.00 in Snow Light Snow
9:56 PM 7.0 °F -8.3 °F 1.9 °F 80% 30.10 in 2.0 mi NNW 11.5 mph - 0.00 in Snow Light Snow
10:23 PM 7.0 °F -8.3 °F 1.0 °F 77% 29.95 in 3.0 mi NNW 11.5 mph - 0.00 in Snow Light Snow
10:56 PM 6.1 °F -11.6 °F 1.0 °F 80% 30.11 in 3.0 mi NNW 15.0 mph - 0.00 in Snow Light Snow
11:22 PM 6.1 °F -10.9 °F 1.0 °F 80% 29.95 in 3.0 mi NNW 13.8 mph - 0.00 in Snow Light Snow
11:29 PM 6.1 °F -11.6 °F 1.0 °F 80% 29.95 in 2.0 mi NNW 15.0 mph - 0.00 in Snow Light Snow
11:40 PM 6.1 °F -9.5 °F 1.0 °F 80% 29.95 in 1.8 mi NNW 11.5 mph - 0.00 in Snow Light Snow
11:56 PM 6.1 °F -12.2 °F 1.0 °F 80% 30.12 in 1.5 mi NNW 16.1 mph - 0.00 in Snow Light Snow